�������l�o���
Date,Time,MP-1(��Sv/h),MP-2(��Sv/h),MP-3(��Sv/h),MP-4(��Sv/h),MP-5(��Sv/h),MP-6(��Sv/h),MP-7(��Sv/h),MP-8(��Sv/h),����,����(m/s),���J
2018/11/07,00:00,0.758,1.137,0.804,1.426,1.029,0.450,0.790,0.751,�k,5.6,��
2018/11/07,00:10,0.758,1.135,0.802,1.428,1.030,0.448,0.791,0.751,�k,5.6,��
2018/11/07,00:20,0.758,1.137,0.802,1.427,1.029,0.449,0.791,0.750,�k,5.4,��
2018/11/07,00:30,0.760,1.136,0.803,1.427,1.028,0.447,0.790,0.751,�k,5.5,��
2018/11/07,00:40,0.757,1.138,0.804,1.428,1.032,0.450,0.791,0.751,�k,5.7,��
2018/11/07,00:50,0.759,1.133,0.804,1.430,1.029,0.450,0.791,0.751,�k,6.6,��
2018/11/07,01:00,0.758,1.136,0.803,1.428,1.031,0.448,0.791,0.754,�k,5.7,��
2018/11/07,01:10,0.759,1.138,0.804,1.429,1.031,0.449,0.792,0.751,�k,6.4,��
2018/11/07,01:20,0.758,1.136,0.804,1.429,1.030,0.450,0.790,0.749,�k,5.9,��
2018/11/07,01:30,0.759,1.137,0.804,1.428,1.033,0.450,0.793,0.751,�k�k��,6.3,��
2018/11/07,01:40,0.758,1.138,0.806,1.429,1.032,0.451,0.791,0.752,�k�k��,6.8,��
2018/11/07,01:50,0.758,1.136,0.804,1.429,1.032,0.448,0.791,0.751,�k�k��,7.5,��
2018/11/07,02:00,0.759,1.136,0.803,1.429,1.030,0.449,0.792,0.754,�k�k��,7.3,��
2018/11/07,02:10,0.760,1.138,0.805,1.430,1.031,0.449,0.792,0.749,�k�k��,7.2,��
2018/11/07,02:20,0.759,1.139,0.803,1.430,1.030,0.450,0.792,0.751,�k�k��,7.7,��
2018/11/07,02:30,0.758,1.138,0.804,1.428,1.030,0.450,0.793,0.752,�k�k��,6.6,��
2018/11/07,02:40,0.760,1.140,0.803,1.431,1.034,0.450,0.792,0.753,�k�k��,6.1,��
2018/11/07,02:50,0.760,1.138,0.805,1.430,1.032,0.450,0.791,0.751,�k�k��,6.5,��
2018/11/07,03:00,0.760,1.140,0.803,1.431,1.031,0.451,0.792,0.752,�k�k��,6.8,��
2018/11/07,03:10,0.761,1.140,0.804,1.432,1.033,0.450,0.791,0.752,�k�k��,6.4,��
2018/11/07,03:20,0.760,1.137,0.806,1.432,1.033,0.450,0.791,0.750,�k�k��,6.1,��
2018/11/07,03:30,0.758,1.141,0.805,1.430,1.032,0.450,0.793,0.752,�k�k��,6.7,��
2018/11/07,03:40,0.758,1.138,0.804,1.430,1.031,0.449,0.793,0.752,�k�k��,6.5,��
2018/11/07,03:50,0.759,1.139,0.804,1.433,1.034,0.449,0.793,0.751,�k�k��,7.0,��
2018/11/07,04:00,0.760,1.140,0.804,1.433,1.032,0.450,0.791,0.751,�k�k��,7.9,��
2018/11/07,04:10,0.760,1.141,0.805,1.432,1.033,0.452,0.792,0.751,�k�k��,6.8,��
2018/11/07,04:20,0.758,1.139,0.804,1.430,1.034,0.450,0.794,0.752,�k�k��,7.4,��
2018/11/07,04:30,0.757,1.140,0.805,1.433,1.031,0.450,0.790,0.750,�k�k��,6.5,��
2018/11/07,04:40,0.758,1.138,0.804,1.433,1.030,0.450,0.791,0.750,�k�k��,5.7,��
2018/11/07,04:50,0.761,1.141,0.803,1.432,1.033,0.448,0.792,0.751,�k��,6.3,��
2018/11/07,05:00,0.758,1.138,0.805,1.433,1.036,0.451,0.794,0.752,�k�k��,7.0,��
2018/11/07,05:10,0.759,1.139,0.805,1.430,1.032,0.450,0.793,0.752,�k�k��,7.5,��
2018/11/07,05:20,0.757,1.138,0.803,1.436,1.034,0.449,0.793,0.750,�k�k��,7.7,��
2018/11/07,05:30,0.758,1.140,0.805,1.434,1.033,0.451,0.792,0.752,�k�k��,8.5,��
2018/11/07,05:40,0.758,1.141,0.804,1.434,1.031,0.449,0.793,0.751,�k,7.8,��
2018/11/07,05:50,0.759,1.139,0.803,1.436,1.032,0.451,0.792,0.750,�k�k��,7.3,��
2018/11/07,06:00,0.757,1.139,0.805,1.436,1.032,0.448,0.794,0.751,�k�k��,7.1,��
2018/11/07,06:10,0.761,1.140,0.805,1.434,1.033,0.451,0.791,0.751,�k�k��,7.5,��
2018/11/07,06:20,0.759,1.139,0.803,1.433,1.032,0.449,0.791,0.750,�k,8.1,��
2018/11/07,06:30,0.759,1.140,0.805,1.433,1.029,0.451,0.792,0.751,�k�k��,9.0,��
2018/11/07,06:40,0.760,1.140,0.805,1.433,1.033,0.450,0.791,0.753,�k�k��,7.4,��
2018/11/07,06:50,0.758,1.138,0.806,1.433,1.033,0.449,0.792,0.750,�k�k��,6.4,��
2018/11/07,07:00,0.757,1.140,0.805,1.433,1.032,0.449,0.794,0.750,�k�k��,6.7,��
2018/11/07,07:10,0.759,1.137,0.804,1.437,1.033,0.451,0.792,0.753,�k�k��,7.7,��
2018/11/07,07:20,0.761,1.140,0.804,1.436,1.031,0.449,0.795,0.752,�k�k��,8.5,��
2018/11/07,07:30,0.758,1.140,0.803,1.436,1.034,0.449,0.794,0.751,�k�k��,8.9,��
2018/11/07,07:40,0.761,1.141,0.804,1.435,1.034,0.451,0.793,0.753,�k�k��,7.5,��
2018/11/07,07:50,0.760,1.142,0.804,1.436,1.033,0.448,0.792,0.752,�k�k��,8.3,��
2018/11/07,08:00,0.758,1.141,0.805,1.434,1.034,0.450,0.793,0.753,�k�k��,8.1,��
2018/11/07,08:10,0.758,1.140,0.803,1.434,1.035,0.450,0.792,0.751,�k�k��,8.5,��
2018/11/07,08:20,0.760,1.142,0.805,1.434,1.035,0.449,0.791,0.752,�k�k��,7.6,��
2018/11/07,08:30,0.761,1.141,0.805,1.432,1.036,0.449,0.792,0.753,�k�k��,7.7,��
2018/11/07,08:40,0.760,1.141,0.806,1.437,1.034,0.450,0.792,0.753,�k�k��,7.2,��
2018/11/07,08:50,0.760,1.143,0.803,1.435,1.035,0.449,0.791,0.752,�k�k��,6.3,��
2018/11/07,09:00,0.762,1.139,0.804,1.433,1.035,0.451,0.792,0.752,�k�k��,6.9,��
2018/11/07,09:10,0.763,1.142,0.808,1.435,1.037,0.450,0.794,0.753,�k�k��,6.4,��
2018/11/07,09:20,0.762,1.141,0.805,1.437,1.035,0.449,0.794,0.753,�k�k��,6.6,��
2018/11/07,09:30,0.763,1.140,0.805,1.439,1.037,0.450,0.793,0.751,�k�k��,6.3,��
2018/11/07,09:40,0.763,1.140,0.804,1.437,1.036,0.449,0.794,0.753,�k�k��,7.4,��
2018/11/07,09:50,0.762,1.138,0.799,1.435,1.038,0.448,0.793,0.754,�k�k��,8.3,��
2018/11/07,10:00,0.760,1.141,0.804,1.437,1.037,0.449,0.795,0.755,�k,8.0,��
2018/11/07,10:10,0.763,1.141,0.806,1.438,1.038,0.448,0.793,0.754,�k,6.6,��
2018/11/07,10:20,0.761,1.141,0.807,1.437,1.036,0.449,0.795,0.753,�k,6.7,��
2018/11/07,10:30,0.764,1.143,0.807,1.438,1.036,0.448,0.795,0.753,�k,6.2,��
2018/11/07,10:40,0.761,1.141,0.805,1.440,1.036,0.448,0.795,0.754,�k,6.0,��
2018/11/07,10:50,0.761,1.141,0.806,1.439,1.039,0.447,0.796,0.753,�k,6.6,��
2018/11/07,11:00,0.762,1.142,0.806,1.438,1.037,0.447,0.796,0.753,�k,7.7,��
2018/11/07,11:10,0.762,1.145,0.808,1.439,1.038,0.449,0.795,0.753,�k,7.1,��
2018/11/07,11:20,0.763,1.145,0.808,1.441,1.038,0.446,0.797,0.754,�k,7.4,��
2018/11/07,11:30,0.763,1.145,0.807,1.441,1.039,0.448,0.797,0.757,�k,6.7,��
2018/11/07,11:40,0.764,1.143,0.808,1.442,1.039,0.448,0.797,0.754,�k,7.0,��
2018/11/07,11:50,0.764,1.146,0.810,1.441,1.041,0.447,0.795,0.754,�k,5.8,��
2018/11/07,12:00,0.762,1.147,0.809,1.440,1.041,0.450,0.797,0.751,�k,7.0,��
2018/11/07,12:10,0.762,1.146,0.811,1.444,1.041,0.449,0.796,0.754,�k,6.7,��
2018/11/07,12:20,0.764,1.150,0.810,1.444,1.042,0.448,0.797,0.753,�k,5.7,��
2018/11/07,12:30,0.762,1.149,0.808,1.444,1.041,0.446,0.797,0.753,�k,6.2,��
2018/11/07,12:40,0.765,1.147,0.809,1.445,1.041,0.448,0.796,0.752,�k,5.2,��
2018/11/07,12:50,0.766,1.147,0.809,1.444,1.044,0.448,0.796,0.752,�k,5.2,��
2018/11/07,13:00,0.764,1.148,0.810,1.445,1.044,0.448,0.796,0.752,�k,5.2,��
2018/11/07,13:10,0.762,1.145,0.808,1.445,1.041,0.449,0.797,0.753,�k,5.0,��
2018/11/07,13:20,0.764,1.149,0.811,1.444,1.042,0.447,0.796,0.752,�k,5.3,��
2018/11/07,13:30,0.765,1.146,0.807,1.445,1.042,0.448,0.798,0.753,�k,5.5,��
2018/11/07,13:40,0.765,1.149,0.808,1.445,1.043,0.451,0.797,0.755,�k,6.1,��
2018/11/07,13:50,0.765,1.149,0.810,1.448,1.043,0.449,0.797,0.752,�k,5.6,��
2018/11/07,14:00,0.763,1.146,0.810,1.446,1.043,0.450,0.796,0.753,�k,5.2,��
2018/11/07,14:10,0.756,1.149,0.808,1.447,1.043,0.449,0.796,0.753,�k,5.5,��
2018/11/07,14:20,0.761,1.151,0.808,1.446,1.044,0.450,0.797,0.753,�k,5.1,��
2018/11/07,14:30,0.760,1.149,0.807,1.447,1.045,0.451,0.795,0.754,�k,6.0,��
2018/11/07,14:40,0.766,1.147,0.811,1.446,1.044,0.451,0.798,0.753,�k,4.9,��
2018/11/07,14:50,0.764,1.151,0.812,1.447,1.044,0.451,0.797,0.753,�k,5.7,��
2018/11/07,15:00,0.764,1.151,0.809,1.448,1.045,0.451,0.797,0.754,�k,6.4,��
2018/11/07,15:10,0.766,1.152,0.810,1.447,1.044,0.450,0.797,0.753,�k,6.4,��
2018/11/07,15:20,0.764,1.151,0.810,1.444,1.044,0.452,0.797,0.753,�k�k��,6.0,��
2018/11/07,15:30,0.766,1.153,0.810,1.445,1.046,0.450,0.797,0.752,�k�k��,5.6,��
2018/11/07,15:40,0.765,1.149,0.810,1.445,1.046,0.449,0.797,0.754,�k,5.6,��
2018/11/07,15:50,0.768,1.152,0.812,1.444,1.046,0.451,0.797,0.754,�k,5.7,��
2018/11/07,16:00,0.766,1.154,0.814,1.447,1.046,0.451,0.796,0.755,�k�k��,6.3,��
2018/11/07,16:10,0.765,1.154,0.813,1.448,1.046,0.451,0.797,0.755,�k,5.7,��
2018/11/07,16:20,0.767,1.158,0.813,1.447,1.046,0.451,0.798,0.756,�k,5.7,��
2018/11/07,16:30,0.767,1.157,0.812,1.448,1.046,0.451,0.798,0.755,�k,6.5,��
2018/11/07,16:40,0.767,1.157,0.813,1.448,1.046,0.451,0.796,0.755,�k,5.9,��
2018/11/07,16:50,0.770,1.159,0.813,1.447,1.046,0.452,0.795,0.754,�k,5.5,��
2018/11/07,17:00,0.769,1.159,0.812,1.446,1.047,0.450,0.796,0.755,�k,6.5,��
2018/11/07,17:10,0.768,1.159,0.814,1.447,1.045,0.452,0.798,0.754,�k,6.1,��
2018/11/07,17:20,0.769,1.159,0.813,1.446,1.049,0.451,0.797,0.757,�k�k��,6.1,��
2018/11/07,17:30,0.767,1.162,0.815,1.449,1.049,0.450,0.796,0.755,�k�k��,6.0,��
2018/11/07,17:40,0.770,1.160,0.814,1.447,1.047,0.452,0.798,0.757,�k,5.4,��
2018/11/07,17:50,0.769,1.158,0.814,1.446,1.048,0.449,0.799,0.757,�k,5.1,��
2018/11/07,18:00,0.769,1.160,0.815,1.450,1.048,0.452,0.796,0.756,�k,5.1,��
2018/11/07,18:10,0.771,1.161,0.813,1.450,1.048,0.451,0.796,0.755,�k�k��,4.3,��
2018/11/07,18:20,0.768,1.160,0.814,1.448,1.048,0.452,0.797,0.757,�k�k��,4.7,��
2018/11/07,18:30,0.770,1.158,0.814,1.448,1.048,0.451,0.798,0.754,�k�k��,4.9,��
2018/11/07,18:40,0.767,1.160,0.814,1.449,1.048,0.452,0.798,0.755,�k�k��,4.6,��
2018/11/07,18:50,0.768,1.159,0.814,1.451,1.050,0.451,0.797,0.757,�k�k��,5.1,��
2018/11/07,19:00,0.768,1.159,0.815,1.450,1.048,0.452,0.797,0.756,�k�k��,5.2,��
2018/11/07,19:10,0.770,1.158,0.814,1.449,1.051,0.452,0.798,0.757,�k�k��,5.7,��
2018/11/07,19:20,0.768,1.159,0.814,1.449,1.049,0.451,0.797,0.756,�k�k��,6.0,��
2018/11/07,19:30,0.767,1.157,0.813,1.446,1.051,0.451,0.798,0.755,�k�k��,6.2,��
2018/11/07,19:40,0.768,1.158,0.814,1.448,1.051,0.451,0.797,0.757,�k�k��,6.5,��
2018/11/07,19:50,0.768,1.159,0.815,1.448,1.048,0.451,0.798,0.757,�k�k��,6.1,��
2018/11/07,20:00,0.768,1.159,0.815,1.447,1.049,0.452,0.796,0.757,�k�k��,6.5,��
2018/11/07,20:10,0.770,1.161,0.811,1.447,1.050,0.451,0.797,0.755,�k�k��,6.4,��
2018/11/07,20:20,0.768,1.160,0.815,1.451,1.048,0.452,0.798,0.757,�k�k��,6.1,��
2018/11/07,20:30,0.767,1.162,0.815,1.450,1.050,0.452,0.797,0.755,�k�k��,6.6,��
2018/11/07,20:40,0.769,1.158,0.813,1.448,1.051,0.452,0.797,0.757,�k�k��,6.4,��
2018/11/07,20:50,0.769,1.160,0.814,1.448,1.048,0.450,0.797,0.756,�k�k��,5.8,��
2018/11/07,21:00,0.770,1.159,0.813,1.449,1.048,0.452,0.797,0.756,�k�k��,6.1,��
2018/11/07,21:10,0.769,1.161,0.814,1.450,1.048,0.452,0.797,0.757,�k�k��,6.0,��
2018/11/07,21:20,0.768,1.160,0.813,1.448,1.051,0.451,0.796,0.756,�k�k��,5.9,��
2018/11/07,21:30,0.768,1.161,0.813,1.452,1.051,0.452,0.797,0.756,�k�k��,5.9,��
2018/11/07,21:40,0.769,1.161,0.814,1.446,1.051,0.453,0.798,0.756,�k�k��,6.1,��
2018/11/07,21:50,0.770,1.161,0.815,1.448,1.050,0.452,0.796,0.756,�k�k��,6.2,��
2018/11/07,22:00,0.768,1.158,0.815,1.447,1.050,0.452,0.797,0.756,�k�k��,6.1,��
2018/11/07,22:10,0.768,1.161,0.813,1.452,1.049,0.453,0.799,0.756,�k�k��,6.8,��
2018/11/07,22:20,0.767,1.159,0.814,1.448,1.048,0.452,0.798,0.756,�k�k��,6.9,��
2018/11/07,22:30,0.770,1.162,0.814,1.447,1.047,0.453,0.797,0.756,�k�k��,7.1,��
2018/11/07,22:40,0.768,1.160,0.814,1.448,1.049,0.453,0.797,0.755,�k�k��,7.0,��
2018/11/07,22:50,0.768,1.161,0.815,1.452,1.049,0.452,0.798,0.754,�k�k��,7.0,��
2018/11/07,23:00,0.770,1.161,0.814,1.449,1.049,0.452,0.798,0.756,�k�k��,6.7,��
2018/11/07,23:10,0.769,1.162,0.815,1.450,1.049,0.453,0.798,0.755,�k�k��,6.6,��
2018/11/07,23:20,0.769,1.160,0.813,1.452,1.052,0.451,0.798,0.756,�k�k��,6.6,��
2018/11/07,23:30,0.768,1.158,0.813,1.450,1.047,0.452,0.797,0.757,�k�k��,6.5,��
2018/11/07,23:40,0.768,1.161,0.814,1.450,1.050,0.452,0.798,0.756,�k�k��,6.2,��
2018/11/07,23:50,0.771,1.158,0.813,1.450,1.048,0.451,0.799,0.755,�k�k��,6.9,��
